logo tempoitalia

Diretta Meteo Bratsk-Irkutsk, Russialunedì 31 agosto ore 13:00

Mappa
Sereno 20 °C Sereno 24 Ore: T.min 12 T.max 23
Ponente Sud-Est Km/h 14.4 Punto di rugiada: 13 °C Umidità: 64% Visibilità: 10 Km
Il sole sorge alle: 06:14 Il sole tramonta alle: 20:12
31 Agosto 2026 13:00 tempo osservato: Sereno Sereno 20 64 1007 vento: Nord SE 14.4
31 Agosto 2026 12:30 tempo osservato: Sereno Sereno 19 68 1007 vento: Nord SE 14.4
31 Agosto 2026 12:00 tempo osservato: Sereno Sereno 20 59 1007 vento: Nord S/SE 18
31 Agosto 2026 11:30 tempo osservato: Sereno Sereno 19 63 1008 vento: Nord S/SE 18
31 Agosto 2026 11:00 tempo osservato: Sereno Sereno 18 63 1008 vento: Nord S/SE 18
31 Agosto 2026 10:30 tempo osservato: Sereno Sereno 18 67 1008 vento: Nord SE 18
31 Agosto 2026 10:00 tempo osservato: Sereno Sereno 17 67 1009 vento: Nord E/SE 18
31 Agosto 2026 09:30 tempo osservato: Sereno Sereno 16 77 1009 vento: Nord E/SE 18
31 Agosto 2026 09:00 tempo osservato: Sereno Sereno 16 72 1009 vento: Nord E/SE 18
31 Agosto 2026 08:30 tempo osservato: Sereno Sereno 15 76 1009 vento: Nord E/SE 14.4
31 Agosto 2026 08:00 tempo osservato: Sereno Sereno 14 82 1009 vento: Nord E 14.4
31 Agosto 2026 07:30 tempo osservato: Sereno Sereno 14 82 1009 vento: Nord E 14.4
31 Agosto 2026 07:00 tempo osservato: Sereno Sereno 13 87 1010 vento: Nord E 10.8
31 Agosto 2026 06:30 tempo osservato: Sereno Sereno 12 87 1010 vento: Nord E 14.4
31 Agosto 2026 06:00 tempo osservato: Sereno Sereno 12 87 1010 vento: Nord E/SE 10.8
31 Agosto 2026 05:30 tempo osservato: Sereno Sereno 13 87 1010 vento: Nord E/SE 10.8
31 Agosto 2026 05:00 tempo osservato: Sereno Sereno 12 87 1010 vento: Nord E 14.4
31 Agosto 2026 04:30 tempo osservato: Sereno Sereno 12 87 1010 vento: Nord E/SE 10.8
31 Agosto 2026 04:00 tempo osservato: Sereno Sereno 13 87 1010 vento: Nord E/SE 10.8
31 Agosto 2026 03:30 tempo osservato: Sereno Sereno 13 87 1010 vento: Nord E/SE 10.8
31 Agosto 2026 03:00 tempo osservato: Sereno Sereno 13 87 1010 vento: Nord N 7.2
31 Agosto 2026 02:30 tempo osservato: Sereno Sereno 13 87 1010 vento: Nord E/SE 10.8
31 Agosto 2026 02:00 tempo osservato: Sereno Sereno 13 87 1010 vento: Nord E 10.8
31 Agosto 2026 01:30 tempo osservato: Sereno Sereno 13 87 1010 vento: Nord E 10.8
31 Agosto 2026 01:00 tempo osservato: Sereno Sereno 13 87 1010 vento: Nord N 7.2
31 Agosto 2026 00:30 tempo osservato: Sereno Sereno 13 87 1011 vento: Nord N 7.2
31 Agosto 2026 00:00 tempo osservato: Sereno Sereno 13 87 1011 vento: Nord E 10.8
30 Agosto 2026 23:30 tempo osservato: Sereno Sereno 13 87 1011 vento: Nord N 7.2
30 Agosto 2026 23:00 tempo osservato: Sereno Sereno 13 87 1011 vento: Nord N 7.2
30 Agosto 2026 22:30 tempo osservato: Sereno Sereno 14 82 1011 vento: Nord N 7.2
30 Agosto 2026 22:00 tempo osservato: Sereno Sereno 14 82 1011 vento: Nord N 7.2
30 Agosto 2026 21:30 tempo osservato: Sereno Sereno 15 82 1011 vento: Nord N 7.2
30 Agosto 2026 21:00 tempo osservato: Sereno Sereno 16 72 1011 vento: Nord N 7.2
30 Agosto 2026 20:30 tempo osservato: Sereno Sereno 19 59 1011 vento: Nord N 7.2
30 Agosto 2026 20:00 tempo osservato: Sereno Sereno 19 59 1011 vento: Nord N 7.2
30 Agosto 2026 19:30 tempo osservato: Sereno Sereno 20 56 1011 vento: Nord N 7.2
30 Agosto 2026 19:00 tempo osservato: Sereno Sereno 21 52 1011 vento: Nord S/SE 10.8
30 Agosto 2026 18:30 tempo osservato: Sereno Sereno 22 49 1011 vento: Nord S/SE 10.8
30 Agosto 2026 18:00 tempo osservato: Sereno Sereno 22 46 1011 vento: Nord S 10.8
30 Agosto 2026 17:30 tempo osservato: Sereno Sereno 22 46 1011 vento: Nord S 14.4
30 Agosto 2026 17:00 tempo osservato: Sereno Sereno 23 43 1011 vento: Nord S/SE 14.4
30 Agosto 2026 16:30 tempo osservato: Sereno Sereno 22 49 1011 vento: Nord S 14.4
30 Agosto 2026 16:00 tempo osservato: Sereno Sereno 22 46 1011 vento: Nord S/SE 21.6
30 Agosto 2026 15:30 tempo osservato: Sereno Sereno 23 46 1011 vento: Nord S/SE 18
30 Agosto 2026 15:00 tempo osservato: Sereno Sereno 22 49 1011 vento: Nord S/SE 18
30 Agosto 2026 14:30 tempo osservato: Sereno Sereno 22 49 1011 vento: Nord S/SE 18
30 Agosto 2026 14:00 tempo osservato: Sereno Sereno 21 49 1011 vento: Nord S/SE 18